Location: Blackie
(50.6050°N, 113.6230°W)
Time: 11:51:59
(UTC+00:00)

ISS - Pass Details

Date: 02 December 2021
Orbit: 413 x 422 km, 51.6° (Epoch: 19 January)

Event Time Altitude Azimuth Distance (km) Brightness Sun altitude
Rises 01:21:52 0° 282° (WNW) 2,383 1.2 -16.5°
Reaches altitude 10° 01:23:58 10° 283° (WNW) 1,515 0.0 -16.8°
Maximum altitude 01:27:23 90° 281° (W) 428 -3.8 -17.3°
Enters shadow 01:28:12 49° 104° (ESE) 553 -3.6 -17.5°
